Waarnemingen

Advertentie
Mijn weer
Palma De Mallorca/Son San Ju, Spanje (8306): temperatuur & dauwpunt: 16.07.2018 18:00:00 - 22.07.2018 18:00:00 (CEST)Palma De Mallorca/Son San Ju, Spanje (8306): windsnelheid: 16.07.2018 18:00:00 - 22.07.2018 18:00:00 (CEST)Palma De Mallorca/Son San Ju, Spanje (8306): windrichting: 16.07.2018 18:00:00 - 22.07.2018 18:00:00 (CEST)Palma De Mallorca/Son San Ju, Spanje (8306): luchtdruk: 16.07.2018 18:00:00 - 22.07.2018 18:00:00 (CEST)Palma De Mallorca/Son San Ju, Spanje (8306): zicht: 16.07.2018 18:00:00 - 22.07.2018 18:00:00 (CEST)
Datum & Tijd tt [°C] td [°C] ff [km/u] ff [kn] dd ppp [hPa] vv [km]
22.07.2018 18:00:00 26,4 17,4 29 16 ONO 1014,2 10
22.07.2018 17:00:00 26,9 19,6 31 17 NNW 1014,6 10
22.07.2018 16:00:00 30,4 19,0 24 13 WZW 1013,9 10
22.07.2018 15:00:00 31,1 19,0 16 9 ZW 1013,0 10
22.07.2018 14:00:00 32,7 16,5 8 4 O 1013,8 10
22.07.2018 13:00:00 31,4 16,6 5 3 N 1014,4 10
22.07.2018 12:00:00 29,7 17,5 9 5 NO 1014,5 10
22.07.2018 11:00:00 27,8 17,6 11 6 - 1015,2 10
22.07.2018 10:00:00 26,6 18,5 15 8 NO 1014,4 10
22.07.2018 09:00:00 24,3 19,2 13 7 ONO 1014,2 10
22.07.2018 08:00:00 22,2 18,8 9 5 NO 1015,1 10
22.07.2018 07:00:00 20,7 18,1 8 4 ONO 1014,7 10
22.07.2018 06:00:00 21,2 18,0 8 4 O 1013,9 10
22.07.2018 05:00:00 20,7 17,7 8 4 NO 1013,6 15
22.07.2018 04:00:00 20,9 17,9 4 2 - 1014,6 10
22.07.2018 03:00:00 21,6 17,8 8 4 O 1014,6 10
22.07.2018 02:00:00 22,2 18,0 5 3 O 1015,1 10
22.07.2018 01:00:00 23,0 18,1 8 4 O 1015,1 10
22.07.2018 00:00:00 24,0 18,0 5 3 ONO 1015,1 10
21.07.2018 23:00:00 25,1 17,8 4 2 - 1014,7 10
21.07.2018 22:00:00 26,2 18,1 18 10 ONO 1014,1 10
21.07.2018 21:00:00 27,6 21,2 8 4 WZW 1013,3 10
21.07.2018 20:00:00 28,0 21,5 9 5 ZW 1012,8 10
21.07.2018 19:00:00 29,2 21,9 13 7 ZW 1012,7 10
21.07.2018 18:00:00 29,5 22,0 16 9 ZW 1012,7 10
21.07.2018 17:00:00 29,8 22,0 24 13 ZW 1013,1 28
21.07.2018 16:00:00 29,6 21,8 21 11 ZW 1013,0 10
21.07.2018 15:00:00 30,4 22,0 21 11 WZW 1013,1 10
21.07.2018 14:00:00 30,9 21,1 22 12 ZW 1013,2 10
21.07.2018 13:00:00 31,3 19,0 13 7 ONO 1013,3 10
21.07.2018 12:00:00 29,8 19,4 15 8 ONO 1013,4 10
21.07.2018 11:00:00 28,9 19,8 15 8 ONO 1013,3 10
21.07.2018 10:00:00 27,4 20,6 21 11 ONO 1013,2 10
21.07.2018 09:00:00 25,8 20,6 18 10 ONO 1013,2 10
21.07.2018 08:00:00 23,6 20,3 4 2 NNO 1012,6 10
21.07.2018 07:00:00 20,4 19,2 5 3 NNO 1012,0 10
21.07.2018 06:00:00 20,7 19,4 0 0 N 1011,2 10
21.07.2018 05:00:00 21,4 19,7 8 4 Z 1010,8 10
21.07.2018 04:00:00 22,0 19,9 2 1 ONO 1010,1 10
21.07.2018 03:00:00 22,5 20,2 9 5 ONO 1010,3 10
21.07.2018 02:00:00 24,7 20,6 8 4 NNW 1011,1 15
21.07.2018 01:00:00 25,0 21,5 9 5 W 1011,7 10
21.07.2018 00:00:00 25,5 22,2 9 5 WZW 1011,4 10
20.07.2018 23:00:00 26,1 22,6 9 5 WZW 1011,8 10
20.07.2018 22:00:00 26,5 22,8 13 7 ZW 1011,1 10
20.07.2018 21:00:00 26,7 22,8 15 8 ZZW 1010,3 10
20.07.2018 20:00:00 27,1 22,7 15 8 ZZW 1009,9 10
20.07.2018 19:00:00 27,7 22,6 24 13 ZW 1010,7 10
20.07.2018 18:00:00 28,2 22,2 24 13 WZW 1010,8 10
20.07.2018 17:00:00 29,3 22,3 11 6 WZW 1011,2 10
20.07.2018 16:00:00 28,9 22,1 11 6 ZW 1011,8 10
20.07.2018 15:00:00 29,2 22,2 22 12 ZW 1013,1 10
20.07.2018 14:00:00 30,3 21,2 16 9 ZZW 1012,9 10
20.07.2018 13:00:00 30,8 20,1 5 3 WZW 1013,5 10
20.07.2018 12:00:00 29,6 18,7 8 4 WZW 1014,0 10
20.07.2018 11:00:00 29,0 20,4 4 2 NNW 1013,8 10
20.07.2018 10:00:00 28,0 20,6 8 4 ZW 1014,6 10
20.07.2018 09:00:00 26,4 18,1 4 2 - 1013,8 10
20.07.2018 08:00:00 22,6 14,5 0 0 N 1014,0 10
20.07.2018 07:00:00 19,6 15,5 2 1 - 1012,8 10
20.07.2018 06:00:00 19,8 16,5 5 3 NO 1013,1 10
20.07.2018 05:00:00 19,7 16,5 4 2 NO 1013,4 10
20.07.2018 04:00:00 19,7 17,3 5 3 NO 1014,0 10
20.07.2018 03:00:00 20,2 18,0 5 3 ONO 1014,5 10
20.07.2018 02:00:00 21,1 18,1 5 3 NO 1014,8 10
20.07.2018 01:00:00 21,6 18,8 0 0 N 1015,4 10
20.07.2018 00:00:00 22,7 19,5 5 3 ONO 1014,9 10
19.07.2018 23:00:00 24,0 20,3 4 2 - 1014,9 10
19.07.2018 22:00:00 26,4 19,4 2 1 - 1014,6 10
19.07.2018 21:00:00 27,6 20,4 15 8 ZW 1014,2 10
19.07.2018 20:00:00 28,3 21,0 18 10 WZW 1014,0 10
19.07.2018 19:00:00 28,9 21,1 22 12 WZW 1014,0 10
19.07.2018 18:00:00 29,3 21,0 22 12 WZW 1014,1 10
19.07.2018 17:00:00 30,0 19,8 21 11 WZW 1014,5 10
19.07.2018 16:00:00 29,8 19,6 24 13 WZW 1015,3 10
19.07.2018 15:00:00 30,4 20,9 24 13 ZW 1015,6 10
19.07.2018 14:00:00 30,7 18,3 26 14 ZW 1016,0 30
19.07.2018 13:00:00 30,1 18,2 15 8 WZW 1015,7 10
19.07.2018 12:00:00 30,1 17,0 16 9 ZW 1016,1 10
19.07.2018 11:00:00 30,5 12,1 9 5 WZW 1016,0 10
19.07.2018 10:00:00 29,4 14,8 5 3 ZW 1015,9 10
19.07.2018 09:00:00 26,4 17,7 2 1 - 1015,8 10
19.07.2018 08:00:00 21,7 16,9 2 1 - 1015,4 10
19.07.2018 07:00:00 18,3 15,9 4 2 - 1014,7 10
19.07.2018 06:00:00 18,8 15,7 2 1 - 1014,6 10
19.07.2018 05:00:00 19,0 16,2 4 2 - 1014,7 10
19.07.2018 04:00:00 19,8 16,6 5 3 NNO 1014,8 10
19.07.2018 03:00:00 20,4 17,6 5 3 NO 1014,7 10
19.07.2018 02:00:00 21,7 18,3 5 3 ONO 1015,1 10
19.07.2018 01:00:00 23,0 17,7 4 2 - 1015,7 10
19.07.2018 00:00:00 23,1 18,6 5 3 O 1015,4 10
18.07.2018 23:00:00 25,8 17,9 8 4 ZZO 1015,1 10
18.07.2018 22:00:00 26,4 20,7 4 2 - 1014,4 10
18.07.2018 21:00:00 27,1 19,7 11 6 WZW 1014,0 10
18.07.2018 20:00:00 28,3 19,0 22 12 W 1013,7 10
18.07.2018 19:00:00 31,1 16,3 24 13 WZW 1013,7 10
18.07.2018 18:00:00 33,3 14,5 16 9 ZZO 1013,7 10
18.07.2018 17:00:00 32,0 16,6 15 8 Z 1014,0 10
18.07.2018 16:00:00 31,8 18,0 13 7 WZW 1014,6 10
18.07.2018 15:00:00 32,3 17,7 24 13 ZW 1015,0 10
18.07.2018 14:00:00 32,5 17,2 13 7 W 1014,9 10
18.07.2018 13:00:00 33,0 13,6 13 7 NO 1014,8 10
18.07.2018 12:00:00 32,0 16,0 13 7 ONO 1015,4 10
18.07.2018 11:00:00 30,0 16,8 11 6 O 1015,5 10
18.07.2018 10:00:00 27,6 17,5 13 7 NO 1016,0 10
18.07.2018 09:00:00 25,1 19,8 8 4 NO 1015,8 10
18.07.2018 08:00:00 22,1 19,8 11 6 ONO 1014,8 10
18.07.2018 07:00:00 20,8 19,5 8 4 ONO 1016,2 10
18.07.2018 06:00:00 20,3 19,1 8 4 NO 1015,9 10
18.07.2018 05:00:00 20,5 19,2 8 4 NO 1015,6 10
18.07.2018 04:00:00 21,2 19,5 8 4 NO 1015,9 10
18.07.2018 03:00:00 21,8 19,7 8 4 NO 1016,1 10
18.07.2018 02:00:00 22,3 20,0 5 3 NO 1016,4 10
18.07.2018 01:00:00 23,6 20,5 4 2 O 1016,7 -
18.07.2018 00:00:00 24,8 20,9 5 3 NO 1016,8 10
17.07.2018 23:00:00 26,2 21,6 4 2 ZO 1017,1 10
17.07.2018 22:00:00 26,8 21,3 5 3 ZZO 1016,8 10
17.07.2018 21:00:00 27,0 23,0 11 6 ZW - 10
17.07.2018 20:00:00 28,2 21,1 21 11 ZW 1016,3 10
17.07.2018 19:00:00 29,3 21,1 24 13 ZW 1016,1 10
17.07.2018 18:00:00 29,9 19,1 21 11 ZW 1016,4 10
17.07.2018 17:00:00 29,8 21,5 22 12 ZW 1016,8 10
17.07.2018 16:00:00 29,9 22,5 26 14 ZW 1017,0 10
17.07.2018 15:00:00 30,2 22,6 26 14 ZZW 1017,1 10
17.07.2018 14:00:00 29,9 20,8 24 13 ZW 1017,4 10
17.07.2018 13:00:00 31,1 17,0 16 9 ZW 1017,6 10
17.07.2018 12:00:00 30,7 17,0 22 12 ZW 1017,7 10
17.07.2018 11:00:00 30,6 15,5 8 4 ZO 1017,4 10
17.07.2018 10:00:00 29,1 16,0 11 6 NO 1017,6 10
17.07.2018 09:00:00 27,1 18,4 5 3 N 1017,4 10
17.07.2018 08:00:00 23,6 18,0 5 3 ONO 1017,3 10
17.07.2018 07:00:00 20,3 16,9 4 2 - 1016,8 10
17.07.2018 06:00:00 20,4 17,5 5 3 ZO 1016,4 10
17.07.2018 05:00:00 19,7 17,5 2 1 NO 1016,3 10
17.07.2018 04:00:00 21,1 18,2 4 2 - 1016,5 10
17.07.2018 03:00:00 20,8 17,6 2 1 - 1017,1 10
17.07.2018 02:00:00 22,4 18,0 4 2 - 1017,0 10
17.07.2018 01:00:00 22,4 18,5 2 1 Z 1017,0 10
17.07.2018 00:00:00 25,3 20,1 5 3 Z 1016,8 10
16.07.2018 23:00:00 26,8 19,7 15 8 WZW 1016,5 25
16.07.2018 22:00:00 27,2 16,8 13 7 ZW 1016,0 10
16.07.2018 21:00:00 27,6 19,4 18 10 WZW 1015,5 10
16.07.2018 20:00:00 29,0 18,2 22 12 WZW 1014,7 10
16.07.2018 19:00:00 30,8 16,5 16 9 W 1014,4 10
16.07.2018 18:00:00 31,9 14,1 21 11 NNW 1014,3 10

tt = temperatuur
td = dauwpunt
ff = windsnelheid
dd = windrichting
ppp = luchtdruk
vv = zicht

Weerstations in de omgeving